Auburn-Lewiston, ME

4:21 AM EST on December 11, 2019 (GMT -0500)
Auburn-Lewiston Municipal

Weather History for KLEW - October, 2019

Change the Weather History Date:

Tuesday, October 22, 2019

  Actual Average Record
Temperature  
Mean Temperature 46 °F -  
Max Temperature 57 °F 52 °F 80 °F (2007)
Min Temperature 35 °F 33 °F 24 °F (1997)
Degree Days  
Heating Degree Days 19    
Moisture  
Dew Point 43 °F    
Average Humidity 85    
Maximum Humidity 100    
Minimum Humidity 59    
Precipitation  
Precipitation 0.05 in - - ()
Sea Level Pressure  
Sea Level Pressure 30.15 in    
Wind  
Wind Speed 4 mph (East)    
Max Wind Speed 10 mph    
Max Gust Speed 17 mph    
Visibility 8 miles    
Events Rain    
Averages and records for this station are not official NWS values.
T = Trace of Precipitation, MM = Missing Value Source: NWS Daily Summary

Daily Weather History Graph

Daily Weather History Graph

Search for Another Location

Airport or City:

Astronomy

Oct. 22, 2019 Rise Set
Actual Time 7:04 AM EDT 5:46 PM EDT
Civil Twilight 6:34 AM EDT 6:15 PM EDT
Nautical Twilight 6:01 AM EDT 6:49 PM EDT
Astronomical Twilight 5:27 AM EDT 7:22 PM EDT
Moon No Moon Rise 3:09 PM EDT (10/22)
Length of Visible Light 11h 40m
Length of Day
10h 41m
Last Quarter, 37% of the Moon is Illuminated
Oct 22
Last Quarter
Oct 27
New
Nov 4
First Quarter
Nov 12
Full
Nov 19
Last Quarter

Hourly Weather History & Observations

Time (EDT) Temp. Windchill Dew Point Humidity Pressure Visibility Wind Dir Wind Speed Gust Speed Precip Events Conditions
12:56 AM 39.0 °F 36.8 °F 37.9 °F 96% 30.23 in 7.0 mi North 3.5 mph - N/A   Clear
1:40 AM 35.6 °F - 35.6 °F 100% 30.20 in 2.5 mi Calm Calm - N/A   Clear
1:48 AM 35.6 °F - 35.6 °F 100% 30.21 in 10.0 mi Calm Calm - N/A   Clear
1:56 AM 37.9 °F - 37.0 °F 97% 30.23 in 9.0 mi Calm Calm - N/A   Clear
2:56 AM 37.9 °F - 37.9 °F 100% 30.22 in 5.0 mi Calm Calm - N/A   Clear
3:11 AM 35.6 °F - 35.6 °F 100% 30.19 in 2.5 mi Calm Calm - N/A   Clear
3:19 AM 35.6 °F - 33.8 °F 93% 30.20 in 10.0 mi Calm Calm - N/A   Clear
3:56 AM 37.0 °F 33.3 °F 36.0 °F 96% 30.22 in 8.0 mi North 4.6 mph - N/A   Clear
4:56 AM 36.0 °F - 35.1 °F 97% 30.22 in 10.0 mi Calm Calm - N/A   Clear
5:56 AM 36.0 °F - 35.1 °F 97% 30.22 in 10.0 mi Calm Calm - N/A   Clear
6:56 AM 35.1 °F - 34.0 °F 96% 30.22 in 10.0 mi Calm Calm - N/A   Clear
7:56 AM 39.0 °F - 37.9 °F 96% 30.23 in 10.0 mi Calm Calm - N/A   Clear
8:56 AM 43.0 °F 41.3 °F 42.1 °F 97% 30.22 in 10.0 mi North 3.5 mph - N/A   Clear
9:56 AM 48.0 °F - 43.0 °F 83% 30.25 in - Variable 4.6 mph - 0.02 in   Clear
10:56 AM 52.0 °F - 43.0 °F 71% - 10.0 mi North - - N/A   Clear
11:56 AM 57.9 °F - 44.1 °F 60% 30.20 in 10.0 mi SE 10.4 mph 17.3 mph N/A   Clear
12:56 PM 57.0 °F - 43.0 °F 59% 30.19 in 10.0 mi ESE 10.4 mph - N/A   Clear
1:56 PM 57.0 °F - 45.0 °F 64% 30.19 in 10.0 mi SE 4.6 mph - N/A   Clear
2:56 PM 57.0 °F - 45.0 °F 64% 30.17 in 10.0 mi ESE 9.2 mph - N/A   Clear
3:56 PM 55.9 °F - 45.0 °F 67% 30.16 in 10.0 mi ESE 6.9 mph - N/A   Clear
4:56 PM 55.0 °F - 45.0 °F 69% 30.15 in 10.0 mi East 8.1 mph - N/A   Clear
5:56 PM 53.1 °F - 45.0 °F 74% 30.17 in 10.0 mi East 5.8 mph - N/A   Scattered Clouds
6:10 PM 53.6 °F - 46.4 °F 77% 30.13 in 10.0 mi East 5.8 mph - N/A   Mostly Cloudy
6:56 PM 52.0 °F - 46.0 °F 80% 30.14 in 10.0 mi East 8.1 mph - N/A   Overcast
7:25 PM 51.8 °F - 46.4 °F 82% 30.10 in 10.0 mi ESE 10.4 mph 16.1 mph N/A   Overcast
7:56 PM 52.0 °F - 46.9 °F 83% 30.12 in 10.0 mi East 9.2 mph 16.1 mph 0.00 in Rain Light Rain
8:27 PM 51.8 °F - 46.4 °F 82% 30.10 in 10.0 mi SE 8.1 mph - 0.00 in   Overcast
8:56 PM 52.0 °F - 46.9 °F 83% 30.11 in 10.0 mi ESE 10.4 mph - 0.00 in   Overcast
9:13 PM 51.8 °F - 46.4 °F 82% 30.07 in 10.0 mi East 8.1 mph - N/A   Overcast
9:49 PM 51.8 °F - 46.4 °F 82% 30.07 in 10.0 mi East 6.9 mph - N/A   Overcast
9:56 PM 52.0 °F - 46.9 °F 83% 30.09 in 10.0 mi East 8.1 mph - N/A   Overcast
10:56 PM 52.0 °F - 48.0 °F 86% 30.06 in 10.0 mi Variable 4.6 mph - 0.00 in Rain Light Rain
11:22 PM 51.8 °F - 48.2 °F 88% 30.01 in 2.5 mi East 8.1 mph - 0.00 in Rain Light Rain
11:34 PM 51.8 °F - 48.2 °F 88% 30.01 in 3.0 mi East 5.8 mph - 0.00 in Rain Rain
11:47 PM 50.0 °F - 48.2 °F 94% 29.99 in 4.0 mi ENE 6.9 mph - 0.02 in Rain Rain
11:56 PM 50.0 °F - 48.9 °F 96% 30.01 in 2.5 mi ENE 5.8 mph - 0.03 in Rain Rain